Weather History for Grant County, OR

Change the Weather History Date:

Wednesday, June 4, 2014

  Actual Average (KBNO) Record (KBNO)
Temperature  
Mean Temperature 61 °F 56 °F  
Max Temperature 78 °F 71 °F 92 °F (2000)
Min Temperature 44 °F 40 °F 24 °F (2001)
Degree Days  
Heating Degree Days 4 10  
Month to date heating degree days 40  
Since 1 June heating degree days 40  
Since 1 July heating degree days 7510  
Cooling Degree Days 0 0  
Month to date cooling degree days 0  
Year to date cooling degree days 3  
Since 1 June cooling degree days 0  
Growing Degree Days 11 (Base 50)    
Moisture  
Dew Point 32 °F    
Average Humidity 39    
Maximum Humidity 71    
Minimum Humidity 12    
Precipitation  
Precipitation 0.00 in 0.03 in 0.42 in (1984)
Month to date precipitation 0.14  
Year to date precipitation 5.60  
Sea Level Pressure  
Sea Level Pressure 30.06 in    
Wind  
Wind Speed 6 mph (West)    
Max Wind Speed 13 mph    
Max Gust Speed 16 mph    
Visibility 10 miles    
Events      
T = Trace of Precipitation, MM = Missing Value Source: NWS Daily Summary

Daily Weather History Graph

Daily Weather History Graph

Search for Another Location

Airport:

Trip Planner

Search our weather history database for the weather conditions in past years. The results will help you decide how hot, cold, wet, or windy it might be!

Date:

Astronomy

Jun. 04, 2014 Rise Set
Actual Time 5:13 AM PDT 8:35 PM PDT
Civil Twilight 4:37 AM PDT 9:11 PM PDT
Nautical Twilight 3:50 AM PDT 9:58 PM PDT
Astronomical Twilight 2:51 AM PDT 10:58 PM PDT
Moon 11:47 AM PDT (6/4) 12:27 AM PDT (6/4)
Length of Visible Light 16h 34m
Length of Day
15h 22m
Waxing Crescent, 40% of the Moon is Illuminated
Jun 4
Waxing Crescent
Jun 5
First Quarter
Jun 12
Full
Jun 19
Last Quarter
Jun 27
New

Hourly Weather History & Observations

Time (PDT) Temp. Windchill Dew Point Humidity Pressure Visibility Wind Dir Wind Speed Gust Speed Precip Events Conditions
12:17 AM 57.2 °F - 35.6 °F 44% 30.04 in 10.0 mi WSW 4.6 mph - N/A   Clear
12:35 AM 55.4 °F - 35.6 °F 47% 30.04 in 10.0 mi West 6.9 mph - N/A   Clear
12:56 AM 55.4 °F - 35.6 °F 47% 30.05 in 10.0 mi West 8.1 mph - N/A   Clear
1:35 AM 53.6 °F - 35.6 °F 51% 30.05 in 10.0 mi WSW 6.9 mph - N/A   Clear
2:35 AM 50.0 °F - 35.6 °F 58% 30.06 in 10.0 mi SW 5.8 mph - N/A   Clear
2:55 AM 51.8 °F - 35.6 °F 54% 30.06 in 10.0 mi WSW 5.8 mph - N/A   Clear
3:17 AM 48.2 °F - 35.6 °F 62% 30.06 in 10.0 mi SW 6.9 mph - N/A   Clear
3:36 AM 48.2 °F - 35.6 °F 62% 30.07 in 10.0 mi SW 6.9 mph - N/A   Clear
3:55 AM 46.4 °F 42.9 °F 35.6 °F 66% 30.07 in 10.0 mi SW 6.9 mph - N/A   Clear
4:17 AM 48.2 °F - 35.6 °F 62% 30.07 in 10.0 mi SW 4.6 mph - N/A   Clear
4:37 AM 48.2 °F - 35.6 °F 62% 30.08 in 10.0 mi Calm Calm - N/A   Clear
4:56 AM 44.6 °F 41.4 °F 35.6 °F 71% 30.08 in 10.0 mi East 5.8 mph - N/A   Clear
5:16 AM 44.6 °F 41.4 °F 35.6 °F 71% 30.08 in 10.0 mi ESE 5.8 mph - N/A   Clear
5:37 AM 44.6 °F 40.2 °F 35.6 °F 71% 30.09 in 10.0 mi East 8.1 mph - N/A   Clear
5:58 AM 44.6 °F 42.2 °F 35.6 °F 71% 30.09 in 10.0 mi East 4.6 mph - N/A   Clear
6:18 AM 46.4 °F 42.9 °F 35.6 °F 66% 30.09 in 10.0 mi East 6.9 mph - N/A   Clear
6:35 AM 46.4 °F 41.9 °F 35.6 °F 66% 30.10 in 10.0 mi East 9.2 mph - N/A   Clear
7:15 AM 48.2 °F - 35.6 °F 62% 30.10 in 10.0 mi ESE 10.4 mph - N/A   Clear
7:35 AM 51.8 °F - 35.6 °F 54% 30.11 in 10.0 mi ESE 9.2 mph - N/A   Clear
7:57 AM 53.6 °F - 37.4 °F 54% 30.11 in 10.0 mi ESE 3.5 mph - N/A   Clear
8:15 AM 55.4 °F - 37.4 °F 51% 30.11 in 10.0 mi Calm Calm - N/A   Clear
8:35 AM 57.2 °F - 35.6 °F 44% 30.11 in 10.0 mi West 3.5 mph - N/A   Clear
9:15 AM 60.8 °F - 37.4 °F 42% 30.11 in 10.0 mi Calm Calm - N/A   Clear
9:35 AM 60.8 °F - 35.6 °F 39% 30.11 in 10.0 mi Calm Calm - N/A   Clear
10:15 AM 62.6 °F - 37.4 °F 39% 30.10 in 10.0 mi SSW 4.6 mph - N/A   Clear
10:55 AM 64.4 °F - 37.4 °F 37% 30.10 in 10.0 mi NW 3.5 mph - N/A   Clear
11:15 AM 66.2 °F - 39.2 °F 37% 30.09 in 10.0 mi Calm Calm - N/A   Clear
11:38 AM 69.8 °F - 37.4 °F 31% 30.09 in 10.0 mi WNW 4.6 mph - N/A   Clear
11:55 AM 69.8 °F - 35.6 °F 28% 30.08 in 10.0 mi South 3.5 mph - N/A   Clear
12:55 PM 73.4 °F - 37.4 °F 27% 30.07 in 10.0 mi WNW 5.8 mph - N/A   Clear
1:15 PM 73.4 °F - 33.8 °F 23% 30.06 in 10.0 mi Calm Calm - N/A   Clear
2:15 PM 75.2 °F - 24.8 °F 15% 30.05 in 10.0 mi West 6.9 mph - N/A   Clear
2:55 PM 77.0 °F - 23.0 °F 13% 30.04 in 10.0 mi West 10.4 mph - N/A   Clear
3:15 PM 77.0 °F - 19.4 °F 12% 30.03 in 10.0 mi North 6.9 mph - N/A   Clear
3:56 PM 78.8 °F - 28.4 °F 16% 30.02 in 10.0 mi West 8.1 mph - N/A   Clear
4:55 PM 78.8 °F - 26.6 °F 15% 30.01 in 10.0 mi West 8.1 mph - N/A   Clear
5:18 PM 78.8 °F - 28.4 °F 16% 30.00 in 10.0 mi West 6.9 mph - N/A   Clear
5:55 PM 78.8 °F - 28.4 °F 16% 29.99 in 10.0 mi WNW 8.1 mph - N/A   Clear
6:35 PM 78.8 °F - 30.2 °F 17% 29.99 in 10.0 mi NNW 11.5 mph 16.1 mph N/A   Clear
6:55 PM 75.2 °F - 24.8 °F 15% 29.99 in 10.0 mi North 12.7 mph 16.1 mph N/A   Clear
7:35 PM 73.4 °F - 23.0 °F 15% 30.00 in 10.0 mi NNW 10.4 mph - N/A   Clear
7:55 PM 73.4 °F - 23.0 °F 15% 30.00 in 10.0 mi NW 10.4 mph - N/A   Clear
8:35 PM 66.2 °F - 19.4 °F 17% 30.01 in 10.0 mi WSW 4.6 mph - N/A   Clear
8:55 PM 66.2 °F - 19.4 °F 17% 30.01 in 10.0 mi SW 5.8 mph - N/A   Clear
9:35 PM 66.2 °F - 21.2 °F 18% 30.03 in 10.0 mi WSW 4.6 mph - N/A   Clear
10:15 PM 64.4 °F - 24.8 °F 22% 30.04 in 10.0 mi WNW 5.8 mph - N/A   Clear
10:36 PM 62.6 °F - 26.6 °F 26% 30.05 in 10.0 mi North 6.9 mph - N/A   Clear
11:15 PM 60.8 °F - 30.2 °F 31% 30.05 in 10.0 mi Calm Calm - N/A   Clear
11:35 PM 60.8 °F - 30.2 °F 31% 30.05 in 10.0 mi Calm Calm - N/A   Clear
11:56 PM 60.8 °F - 30.2 °F 31% 30.05 in 10.0 mi Calm Calm - N/A   Clear